Location: Bailleul
(50.3375°N, 2.8513°E)
Time: 05:30:02
(UTC+00:00)

Cosmos 1842 Rocket - Pass Details

Date: 19 April 2021
Orbit: 606 x 633 km, 82.5° (Epoch: 09 May)

Event Time Altitude Azimuth Distance (km) Brightness Sun altitude
Exits shadow 22:06:37 84° 45° (NE) 638 3.5 -24.3°
Drops below altitude 10° 22:11:00 10° 11° (N) 2,022 6.9 -24.7°
Sets 22:13:15 0° 11° (N) 2,938 7.8 -24.8°
